Location: Newark
(46.8500°N, 5.1667°E)
Time: 08:49:59
(UTC+00:00)

ISS - Pass Details

Date: 21 September 2019
Orbit: 411 x 421 km, 51.6° (Epoch: 18 October)

Event Time Altitude Azimuth Distance (km) Brightness Sun altitude
Rises 20:06:33 0° 257° (WSW) 2,338 0.7 -24.8°
Reaches altitude 10° 20:08:40 10° 261° (W) 1,478 -0.4 -25.1°
Enters shadow 20:10:24 27° 274° (W) 824 -1.8 -25.3°
